Powrót do katalogu

CZ-6A DEB

AktywnySSO
NORAD 55521·DEBRIS·🇨🇳 China

Wystrzelony Nov 11, 2022 z Taiyuan Satellite Launch Center

Loading…

Następne Przeloty (najbliższe 24 godziny)

TLE

ŚwieżeSource: Space-Track

Epoka: Sep 14, 2026, 11:09 UTC

1 55521U 22151XT  26257.46511336  .00000184  00000-0  13011-3 0  9992
2 55521  98.8685 253.7796 0057473  93.8753 266.8991 14.08639748192108

Śledź CZ-6A DEB w czasie rzeczywistym z AllMySat

Download on the App Store